Brisbane, Australia

8:48 AM AEST on September 22, 2017 (GMT +1000)
Brisbane International

Weather History for YBBN - August, 2013

Change the Weather History Date:

Monday, August 12, 2013

  Actual Average Record
Temperature  
Mean Temperature 62 °F -  
Max Temperature 73 °F 73 °F 77 °F (2002)
Min Temperature 50 °F 52 °F 37 °F (2008)
Degree Days  
Heating Degree Days 4    
Growing Degree Days 12 (Base 50)    
Moisture  
Dew Point 55 °F    
Average Humidity 79    
Maximum Humidity 100    
Minimum Humidity 46    
Precipitation  
Precipitation 0.00 in 0.05 in - ()
Sea Level Pressure  
Sea Level Pressure 29.93 in    
Wind  
Wind Speed 6 mph ()    
Max Wind Speed 21 mph    
Max Gust Speed -    
Visibility 11.5 miles    
Events Fog    
Averages and records for this station are not official NWS values.
T = Trace of Precipitation, MM = Missing Value Source: Averaged Metar Reports

Daily Weather History Graph

Daily Weather History Graph

Search for Another Location

Airport or City:

Trip Planner

Search our weather history database for the weather conditions in past years. The results will help you decide how hot, cold, wet, or windy it might be!

Date:

Astronomy

Aug. 12, 2013 Rise Set
Actual Time 6:20 AM AEST 5:24 PM AEST
Civil Twilight 5:56 AM AEST 5:49 PM AEST
Nautical Twilight 5:29 AM AEST 6:16 PM AEST
Astronomical Twilight 5:01 AM AEST 6:44 PM AEST
Moon 9:12 AM AEST (8/12) 10:19 PM AEST (8/12)
Length of Visible Light 11h 52m
Length of Day
11h 04m
Waxing Crescent, 25% of the Moon is Illuminated
Aug 12
Waxing Crescent
Aug 14
First Quarter
Aug 21
Full
Aug 28
Last Quarter
Sep 5
New

Hourly Weather History & Observations

Time (AEST) Temp. Dew Point Humidity Pressure Visibility Wind Dir Wind Speed Gust Speed Precip Events Conditions
12:00 AM 58 °F 54 °F 83% 30.03 in 22 mi NNW 4.6 mph - -   Partly Cloudy
12:00 AM 59.0 °F 53.6 °F 82% 30.01 in - NNW 4.6 mph - N/A   Clear
12:30 AM 57.2 °F 53.6 °F 88% 30.01 in - Calm Calm - N/A   Clear
1:00 AM 56 °F 54 °F 93% 30.03 in - Calm Calm - -  
1:00 AM 55.4 °F 55.4 °F 100% 30.01 in - Calm Calm - N/A   Clear
1:30 AM 53.6 °F 53.6 °F 100% 30.01 in - Calm Calm - N/A   Clear
2:00 AM 53.6 °F 51.8 °F 94% 30.01 in - Calm Calm - N/A   Clear
2:30 AM 53.6 °F 51.8 °F 94% 30.01 in - Calm Calm - N/A   Clear
3:00 AM 52 °F 51 °F 95% 30.00 in 25 mi Calm Calm - -   Partly Cloudy
3:00 AM 51.8 °F 51.8 °F 100% 29.98 in - Calm Calm - N/A   Clear
3:30 AM 51.8 °F 51.8 °F 100% 29.98 in - Calm Calm - N/A   Clear
4:00 AM 52 °F 51 °F 93% 29.99 in - Calm Calm - -  
4:00 AM 51.8 °F 50.0 °F 94% 29.98 in - Calm Calm - N/A   Clear
4:30 AM 51.8 °F 50.0 °F 94% 29.98 in - Calm Calm - N/A   Clear
5:00 AM 50.0 °F 50.0 °F 100% 29.98 in - Calm Calm - N/A   Clear
5:30 AM 50.0 °F 48.2 °F 94% 29.98 in - SW 5.8 mph - N/A   Clear
5:50 AM 50.0 °F 48.2 °F 94% 30.01 in 6.2 mi SSW 5.8 mph - N/A Fog Shallow Fog
6:00 AM 51 °F 49 °F 91% 30.01 in 12 mi SSW 5.8 mph - - Fog Patches of Fog
6:00 AM 51.8 °F 50.0 °F 94% 30.01 in 6.2 mi SSW 5.8 mph - N/A Fog Shallow Fog
6:30 AM 51.8 °F 50.0 °F 94% 30.01 in 6.2 mi SSW 5.8 mph - N/A Fog Shallow Fog
7:00 AM 53 °F 49 °F 81% 30.01 in - SSW 5.8 mph - -  
7:00 AM 53.6 °F 48.2 °F 82% 30.01 in - SSW 5.8 mph - N/A   Clear
7:30 AM 55.4 °F 50.0 °F 82% 30.01 in - SSW 5.8 mph - N/A   Clear
8:00 AM 59.0 °F 53.6 °F 82% 30.01 in - SSW 6.9 mph - N/A   Clear
8:30 AM 62.6 °F 53.6 °F 72% 30.01 in - WSW 2.3 mph - N/A   Clear
9:00 AM 66.2 °F 51.8 °F 60% 30.01 in - North 6.9 mph - N/A   Clear
9:30 AM 66.2 °F 48.2 °F 52% 30.01 in - North 8.1 mph - N/A   Clear
10:00 AM 68.0 °F 50.0 °F 52% 29.98 in - North 8.1 mph - N/A   Clear
10:30 AM 69.8 °F 50.0 °F 49% 29.98 in - NNE 8.1 mph - N/A   Clear
11:00 AM 71.6 °F 50.0 °F 46% 29.95 in - NNE 10.4 mph - N/A   Clear
11:30 AM 69.8 °F 50.0 °F 49% 29.95 in - NNE 9.2 mph - N/A   Clear
12:00 PM 73.4 °F 51.8 °F 47% 29.92 in - NNE 10.4 mph - N/A   Clear
12:30 PM 73.4 °F 53.6 °F 50% 29.89 in - North 15.0 mph - N/A   Clear
1:00 PM 71.6 °F 53.6 °F 53% 29.89 in - NNE 15.0 mph - N/A   Clear
1:30 PM 71.6 °F 59.0 °F 64% 29.86 in - NNE 15.0 mph - N/A   Clear
2:00 PM 73.4 °F 59.0 °F 61% 29.86 in - NNE 17.3 mph - N/A   Clear
2:30 PM 73.4 °F 60.8 °F 65% 29.83 in - NNE 18.4 mph - N/A   Clear
3:00 PM 73 °F 59 °F 53% 29.84 in 19 mi NNE 19.6 mph - -   Smoke
3:00 PM 73.4 °F 59.0 °F 61% 29.83 in - NNE 19.6 mph - N/A   Clear
3:30 PM 71.6 °F 60.8 °F 69% 29.83 in - NNE 19.6 mph - N/A   Clear
4:00 PM 71 °F 62 °F 66% 29.84 in - North 20.7 mph - -  
4:00 PM 71.6 °F 62.6 °F 73% 29.83 in - North 20.7 mph - N/A   Clear
4:30 PM 69.8 °F 62.6 °F 78% 29.83 in - North 19.6 mph - N/A   Clear
5:00 PM 68.0 °F 62.6 °F 83% 29.83 in - North 19.6 mph - N/A   Clear
5:30 PM 68.0 °F 62.6 °F 83% 29.83 in - North 16.1 mph - N/A   Clear
6:00 PM 68 °F 62 °F 76% 29.86 in 12 mi North 17.3 mph - -   Smoke
6:00 PM 68.0 °F 62.6 °F 83% 29.86 in - North 17.3 mph - N/A   Clear
6:30 PM 68.0 °F 62.6 °F 83% 29.86 in - North 17.3 mph - N/A   Clear
7:00 PM 67 °F 62 °F 77% 29.88 in - North 15.0 mph - -  
7:00 PM 68.0 °F 60.8 °F 78% 29.86 in - North 15.0 mph - N/A   Clear
7:30 PM 66.2 °F 60.8 °F 83% 29.89 in - North 12.7 mph - N/A   Clear
8:00 PM 66.2 °F 60.8 °F 83% 29.89 in - North 12.7 mph - N/A   Clear
8:30 PM 64.4 °F 60.8 °F 88% 29.89 in - North 10.4 mph - N/A   Clear
9:00 PM 64 °F 61 °F 86% 29.90 in 19 mi North 12.7 mph - -   Partly Cloudy
9:00 PM 64.4 °F 60.8 °F 88% 29.89 in - North 12.7 mph - N/A   Clear
9:30 PM 64.4 °F 60.8 °F 88% 29.89 in - North 11.5 mph - N/A   Clear
10:00 PM 64 °F 60 °F 84% 29.90 in - North 11.5 mph - -  
10:00 PM 64.4 °F 60.8 °F 88% 29.89 in - North 11.5 mph - N/A   Clear
10:30 PM 62.6 °F 59.0 °F 88% 29.89 in - North 11.5 mph - N/A   Clear
11:00 PM 64.4 °F 59.0 °F 83% 29.89 in - North 9.2 mph - N/A   Clear
11:30 PM 62.6 °F 59.0 °F 88% 29.89 in - North 9.2 mph - N/A   Clear